{"data":{"norad_id":58530,"intl_designator":"2023-191Y","name":"STARLINK-31009","alt_names":[],"object_type":"PAYLOAD","status":"ACTIVE","operator":null,"country":"US","launch_date":"2023-12-07","launch_site_code":"AFETR","launch_vehicle":null,"mission":null,"orbit_class":"UNKNOWN","rcs_meters":null,"size_class":null,"mass_kg":null,"dimensions":null,"purposes":["comms"],"wikipedia_slug":null,"has_3d_model":false,"image_url":null,"decayed_at":null,"tle_current":{"epoch":"2026-05-25T01:47:13.864992Z","epoch_age_seconds":62623,"freshness":"FRESH","line1":"1 58530U 23191Y   26145.07446603  .00000089  00000+0  12762-4 0  9993","line2":"2 58530  43.0057  32.0252 0001337 263.5716  96.4984 15.27582912137171","mean_motion":15.27582912,"eccentricity":0.0001337,"inclination_deg":43.0057,"raan_deg":32.0252,"arg_perigee_deg":263.5716,"mean_anomaly_deg":96.4984,"bstar":1.2762e-5,"rev_number":13717,"period_min":94.26656901488,"perigee_km":482.12303706268,"apogee_km":483.95771589315,"semimajor_km":6861.1773764779,"source":"CELESTRAK","updated_at":"2026-05-25T13:38:18.659859Z"}}}